OPS 4682 DEB, 38370

Orbit data source: Space-Track

OPS 4682 DEB, 38370 is space debris in LEO originally from a launch on Sat, 03 Apr 1965 UTC launched from the Air Force Western Test Range (AFWTR). Debris objects in space refer to the collection of defunct objects orbiting the Earth. Examples of debris include non-operational satellites, rocket bodies, and fragments generated from explosions, collisions, or faulty payload assembly.

Loading next visibility...
Identifier
38370, 1965-027BX
Orbit
LEO
Country
Flag of USUS
Related business
Manufacturer
Unknown
Mission
Spacecraft
Bus & Motor
Unknown
Mass
Unknown
Launch date (UTC)
1965-04-03 (61 years ago)
Launch vehicle
Unknown
Launch site
Air Force Western Test Range (AFWTR)
Object type
Payload
Rocket body
Debris
Shape & HBR
Unknown shape, 0.1 m
Radar Cross Section
Small (<0.1 m²)

Expand to show TLE details & history
Last TLE update: 17 hours ago

TLE from 17 hours ago
0 OPS 4682 DEB
1 38370U 65027BX  25293.64942508  .00001037  00000-0  33889-2 0  9994
2 38370  90.2521   6.4198 0025026 182.8160 177.2826 13.00620718574660
Epoch: 2025-10-20T15:35Z
TLE epoch observation values (Epoch: 2025-10-20T15:35:10.326Z)
Latitude
-0°
Longitude
103.27807°
Altitude
1,281.637 km
Speed
7.206 km/s
True Right ascension
00h 25m 40s
True Declination
0° 00' 00"
Sunlit
Object was in full shadow at epoch
Visualization orbit readout
Latitude
Unknown
Longitude
Unknown
Altitude
Unknown
Speed
Unknown
Apparent Right ascension
Unknown
Apparent Declination
Unknown
Sunlit
N/A
Visualization observer readout
Local Sidereal Time
03:20:52
Azimuth
Unknown
Elevation
Unknown
Doppler factor
Unknown
Orbital elements
Apogee altitude
1,275.889 km
Perigee altitude
1,237.675 km
Semi-major axis
7,634.919 km
Eccentricity
0.0025
Inclination
90.2521°
RAAN
6.4198°
Arg. of periapsis
182.816°
True anomaly
177.29615°
Mean anomaly
177.2826°
Eccentric anomaly
177.28938°
Mean motion
3.25339 °/min
Orbital period
110.65 mins
BSTAR
0.0033889
Loading maneuver chart data...
Computing Atmospheric mass density...
Loading historical data...
Loading historical data...
Loading historical data...
Loading historical data...
Loading historical data...
Loading historical data...
Loading historical data...

Documentation

Showing up to 5 results
|